THOR ABLESTAR DEB, 234

Orbit data source: Space-Track

THOR ABLESTAR DEB, 234 is space debris in LEO originally from a launch on Thu, 29 Jun 1961 UTC launched from the Air Force Eastern Test Range (AFETR). Debris objects in space refer to the collection of defunct objects orbiting the Earth. Examples of debris include non-operational satellites, rocket bodies, and fragments generated from explosions, collisions, or faulty payload assembly.

Loading next visibility...
Identifier
234, 1961-015BS
Orbit
LEO
Country
Flag of USUS
Related business
Manufacturer
Unknown
Mission
Spacecraft
Bus & Motor
Unknown
Mass
Unknown
Launch date (UTC)
1961-06-29 (65 years ago)
Launch vehicle
Unknown
Launch site
Air Force Eastern Test Range (AFETR)
Object type
Payload
Rocket body
Debris
Shape & HBR
Unknown shape, 0.1 m
Radar Cross Section
Small (<0.1 m²)

Expand to show TLE details & history
Last TLE update: 7 hours ago

TLE from 7 hours ago
0 THOR ABLESTAR DEB
1 00234U 61015BS  26038.25693312  .00000522  00000-0  37065-3 0  9995
2 00234  66.8762 124.5257 0074456 226.9790 132.5044 14.04021036293197
Epoch: 2026-02-07T06:09Z
TLE epoch observation values (Epoch: 2026-02-07T06:09:59.021Z)
Latitude
Longitude
-105.35328°
Altitude
918.732 km
Speed
7.374 km/s
True Right ascension
08h 18m 06s
True Declination
0° 00' 00"
Sunlit
Object was in full shadow at epoch
Visualization orbit readout
Latitude
Unknown
Longitude
Unknown
Altitude
Unknown
Speed
Unknown
Apparent Right ascension
Unknown
Apparent Declination
Unknown
Sunlit
N/A
Visualization observer readout
Local Sidereal Time
15:24:56
Azimuth
Unknown
Elevation
Unknown
Doppler factor
Unknown
Orbital elements
Apogee altitude
932.307 km
Perigee altitude
824.25 km
Semi-major axis
7,256.416 km
Eccentricity
0.00745
Inclination
66.8762°
RAAN
124.5257°
Arg. of periapsis
226.979°
True anomaly
133.12946°
Mean anomaly
132.5044°
Eccentric anomaly
132.81732°
Mean motion
3.51124 °/min
Orbital period
102.53 mins
BSTAR
0.00037065
Loading maneuver chart data...
Computing Atmospheric mass density...
Loading historical data...
Loading historical data...
Loading historical data...
Loading historical data...
Loading historical data...
Loading historical data...
Loading historical data...

Documentation

Showing up to 5 results
|